Regional Weather Roundup
Issued by NWS Wakefield, VA

Home | Current Version | Previous Version | Text Only | Print | Product List | Glossary On
Versions: 1 2 3 4 5 6 7 8 9 10 11 12 13 14 15 16 17 18 19 20 21 22 23 24 25 26 27 28 29 30 31 32 33 34 35 36 37 38 39 40 41 42 43 44 45 46 47 48 49 50
247
ASUS41 KAKQ 080415
RWRAKQ

REGIONAL WEATHER ROUNDUP
NATIONAL WEATHER SERVICE WAKEFIELD VA
1100 PM EST WED DEC 07 2016

Note: "fair" indicates few or no clouds below 12,000 feet with no
significant weather and/or obstructions to visibility. * = Denotes
station may not report precipitation (e.g., rain,snow,etc.),
thunder or fog.

VAZ042-051-052>054-056-080500-
NORTHERN VIRGINIA

CITY           SKY/WX    TMP DP  RH WIND       PRES   REMARKS
WASH NATIONAL  PTCLDY    41  36  82 CALM      30.09S
DULLES         PTCLDY    32  29  88 S3        30.08S
FORT BELVOIR   CLEAR     31  29  93 CALM      30.08S
QUANTICO       CLEAR     34  32  92 NW7       30.10S
FREDERICKSBRG* CLOUDY    34  34 100 CALM      30.08R
STAFFORD*      PTCLDY    29  29 100 CALM      30.13R
WARRENTON      CLEAR     28  24  87 CALM      30.08R FOG
CULPEPER*      CLEAR     31  31  99 CALM      30.10R
MANASSAS*        N/A    N/A N/A N/A MISG        N/A
LEESBURG*      CLOUDY    32  32 100 CALM      30.08S
WINCHESTER     PTCLDY    30  27  86 CALM      30.06S
FRONT ROYAL*   FAIR      32  30  93 CALM      30.05S
LURAY*         FAIR      32  32 100 CALM      30.06R
$$

VAZ048-049-060>072-079>083-080500-
CENTRAL AND SOUTH CENTRAL VIRGINIA

CITY           SKY/WX    TMP DP  RH WIND       PRES   REMARKS
RICHMOND       MOCLDY    37  33  85 S3        30.09R
CHESTERFIELD*  FAIR      37  19  48 CALM      30.10S
PETERSBURG*    PTCLDY    33  32  97 CALM      30.09F
HANOVER        PTCLDY    36  32  85 CALM      30.10S
TAPPAHANNOCK*  PTCLDY    33  33 100 CALM      30.10R
QUINTON*       FAIR      36  35  96 S8        30.09S
CHARLOTTSVILLE CLEAR     37  32  82 W5        30.07R
GORDONSVILLE*  FAIR      32  32  99 CALM      30.08R
ORANGE*          N/A     32  32 100 CALM      30.10R
LOUISA*        CLOUDY    37  36  93 S3        30.07R
BUMPASS*       FAIR      34  33  97 CALM      30.08R
FARMVILLE*     PTCLDY    41  39  91 CALM      30.06S
CREWE*         FAIR      39  39 100 CALM      30.07F
FORT PICKETT*  FAIR      42  37  82 SE3       30.08S
CHASE CITY*    FAIR      39  38  94 CALM      30.07S
CLARKSVILLE*   FAIR      39  39 100 CALM      30.07S
SOUTH HILL*    CLOUDY    42  42 100 CALM      30.14R
LAWRENCEVILLE* CLOUDY    45  42  91 CALM      30.09R
EMPORIA*       MOCLDY    43  41  93 E6        30.10S
$$

VAZ088>098-080500-
SOUTHEAST VIRGINIA

CITY           SKY/WX    TMP DP  RH WIND       PRES   REMARKS
NORFOLK        PTCLDY    41  39  93 CALM      30.08F
VIRGINIA BEACH MOCLDY    39  37  92 CALM      30.08F
NORFOLK NAVAL  PTCLDY    40  38  93 CALM      30.10F
WEST POINT*    PTCLDY    34  33  96 CALM      30.11S
SALUDA*        FAIR      35  35  99 CALM      30.09R
NEWPORT NEWS   PTCLDY    35  35 100 CALM      30.10S FOG
LANGLEY AFB    CLEAR     39  38  98 CALM      30.08S
FORT EUSTIS    PTCLDY    40  36  88 CALM      30.07R
WILLIAMSBURG*  PTCLDY    39  39 100 CALM      30.11R
HR EXEC AP*    FAIR      32  28  86 CALM      30.08S
FRANKLIN*      CLEAR     37  35  96 CALM      30.11R FOG
US460-WAKEFLD  PTCLDY    37  36  96 CALM      30.10R
$$

VAZ020-022-025-037-045-080500-
WEST CENTRAL AND SOUTHWEST VIRGINIA

CITY           SKY/WX    TMP DP  RH WIND       PRES   REMARKS
STAUNTON*      CLEAR     29  28  97 CALM      30.07S FOG
WAYNESBORO*    FAIR      32  29  88 CALM      30.05S
HOT SPRINGS VA PTCLDY    36 -20   8 SW7       30.00S
LYNCHBURG      PTCLDY    35  32  88 CALM      30.08R
DANVILLE       MOCLDY    36  36 100 CALM      30.07S
SOUTH BOSTON*  FAIR      37  36  95 CALM      30.08R
MARTINSVILLE   PTCLDY    33  32  96 CALM      30.09S
ROANOKE        PTCLDY    38  32  79 CALM      30.09R
BLACKSBURG     PTCLDY    33  30  90 CALM      30.08S
DUBLIN*        CLOUDY    38  31  75 CALM      30.07S
MARION*        CLOUDY    37  32  83 CALM      30.07S
HILLSVILLE*    CLOUDY    38  32  77 CALM      30.03S
RICHLANDS*     FAIR      33  30  88 CALM      30.06S
WISE*          MOCLDY    34  27  75 CALM      30.08S
ABINGDON*      PTCLDY    37  33  85 CALM      30.06S
$$

MDZ021>025-VAZ099-100-080500-
SOUTHERN MARYLAND AND THE DELMARVA PENINSULA

CITY           SKY/WX    TMP DP  RH WIND       PRES   REMARKS
PATUXENT RIVER PTCLDY    33  32  96 CALM      30.08R
BAY BRIDGE APT CLEAR     37  34  87 CALM      30.07F
LEONARDTOWN    NOT AVBL
DOVER          CLOUDY    36  36 100 CALM      30.06R
GEORGETOWN     PTCLDY    35  33  92 CALM      30.08S FOG
EASTON         CLOUDY    36  34  92 CALM      30.11S FOG
CAMBRIDGE      MOCLDY    32  32 100 CALM      30.07S
SALISBURY      CLOUDY    33  33 100 CALM      30.08S
OCEAN CITY     PTCLDY    36  34  92 CALM      30.08S FOG
WALLOPS ISLAND PTCLDY    36  36 100 CALM      30.10R
ACCOMACK*      CLEAR     35  35  99 CALM      30.09R FOG
$$

NCZ012>017-030>032-080500-
NORTH CENTRAL AND EASTERN NORTH CAROLINA

CITY           SKY/WX    TMP DP  RH WIND       PRES   REMARKS
ROANOKE RAPIDS CLOUDY    43  43 100 CALM      30.08S
RALEIGH        MOCLDY    48  44  86 CALM      30.07S
ELIZABETH CITY PTCLDY    42  41  96 CALM      30.09F
AHOSKIE*       MOCLDY    41  39  93 CALM      30.11R
EDENTON*       PTCLDY    45  43  93 CALM      30.10F
CURRITUCK*     PTCLDY    43  43 100 CALM      30.10F
KILL DEVIL HLS PTCLDY    48  45  87 CALM      30.08F
MANTEO         PTCLDY    42  42 100 CALM      30.10S
CAPE HATTERAS  NOT AVBL
TARBORO*       NOT AVBL
GOLDSBORO      CLOUDY    45  45 100 CALM      30.07S
WASHINGTON     PTCLDY    38  38  97 CALM      30.11R
GREENVILLE     CLEAR     41  41 100 CALM      30.10S FOG
NEW BERN       CLOUDY    45  43  93 CALM      30.10F
WILMINGTON     CLEAR     45  45 100 CALM      30.09S
$$

VAZ048-080500-
ELSEWHERE

CITY           SKY/WX    TMP DP  RH WIND       PRES   REMARKS
HARRISBURG PA  CLOUDY    40  22  48 N5        30.04F
BALTIMORE      MOCLDY    32  31  96 CALM      30.07S
ANNAPOLIS      CLEAR     39  34  82 CALM      30.08S
ANDREWS AFB    PTCLDY    33  30  86 CALM      30.06S
PHILADELPHIA   CLOUDY    38  34  85 S5        30.06F
HENDERSON NC   CLOUDY    46  40  80 S3        30.07S
GREENSBORO     CLOUDY    48  41  76 CALM      30.05S
ROCKY MOUNT    CLOUDY    41  41 100 CALM      30.09R
$$

VAZ100-080500-
MARINE

STATION/POSITION TIME  TEMP    WIND        PRES    WAVE   SWELL
                       AIR SEA DIR/SP/G            HT/PER HT/PER
                 (UTC) (F)     (DEG/KT/KT) (MB)    (FT/S) (FT/S)
BRANDYWINE LGT   0348   45     280/  8/  9   N/A
CAPE MAY NJ      0348   40 48   CALM  /  1 1017.8S
LEWES DE         0348   40 49  230/  4/  5 1018.2R
OCEAN-CITY-INLET 0348   42 49  280/  3/  4 1018.9S
WACHAPREAGUE VA  0348   38 50   CALM  /  1 1018.7F
THOMAS POINT MD  0400   44 49  270/  5/  5   N/A
GOOSES REEF MD   0400   47 49  250/  4/  4 1019.1    0
COVE POINT MD    0348   44     260/  2/  2 1019.0R
SOLOMONS ISLAND  0348   40 50  340/  2/  3   N/A
BISHOPS HEAD MD  0348   46 48  240/  1/  2 1018.8R
PINEY POINT MD   0348          170/  3/  4   N/A
POTOMAC MD       0400   48 50  110/  2/  4 1017.7    0
CAMBRIDGE MD     0348   38 47  210/  1/  2 1017.9R
LEWISETTA VA     0348   41 49  220/  3/  4 1018.5R
RAPPAHANNOCK LGT 0348          130/  5/  5 1019.5R
STINGRAY PT      0350   47     240/  4/  6 1019.4R
YORK RVR RNG VA  0348   48     130/  5/  6 1018.5R
YORKTOWN VA      0348   44 51  190/  2/  3 1018.6R
JAMESTOWN VA     0400   47 51  100/  2/  4   N/A     0
DOMINION TERM VA 0348   48     130/  4/  5 1018.9F
KIPTOPEKE VA     0348      51                N/A
CHES BAY BRIDGE  0348   49 52   70/  4/  5 1018.6F
CAPE HENRY VA    0348   49      60/  5/  6   N/A
WILLOUBY STN VA  0348   48     160/  4/  4 1019.6F
S CRANEY ISL VA  0348   47     150/  3/  5 1018.7F
CAPE HENRY BUOY  0342      54                N/A     4/10   2/13
1ST LANDING BUOY 0400   49 52              1018.7    3/ 5
CAPE CHARLES BUO 0356      54                N/A     4/10   2/12
OFFSHORE WE BUOY 0351      56                N/A     5/ 8   2/12
64NM E OF VA BCH 0350   53 58  350/ 12/ 14 1018.0R   7/ 9   7/ 9
DUCK PIER NC     0348   51 54   20/  7/  8 1018.2F
44100 DUCK FRF   0335      55                N/A     6/10   2/12
OREGON INLET NC  0336   49 55  340/  3/  4 1018.9R
HATTERAS NC      0348   51 60   30/  3/  4 1018.6F
DIAMOND SHLS NC  0350   54 78   10/  6/ 10 1018.6F   6/11   7/11
CAPE LOOKOUT NC  0400   55      60/  6/  7 1018.3F
$$




USA.gov is the U.S. government's official web portal to all federal, state and local government web resources and services.